Location: Newark
(22.2167°N, 96.1167°E)
Time: 15:42:46
(UTC+00:00)

Envisat - Visible Passes

Search period start: 10 December 2019 00:00
Search period end: 20 December 2019 00:00
Orbit: 764 x 766 km, 98.1° (Epoch: 10 December)

Date Brightness Start Highest point End Pass type
(mag) Time Alt. Az. Time Alt. Az. Time Alt. Az.
10 Dec 5.0 12:30:56 10° SSW 12:35:16 28° W 12:39:37 10° NW visible
10 Dec 6.0 23:12:07 10° ENE 23:15:15 16° E 23:18:22 10° SE visible
11 Dec 3.1 11:53:26 10° S 11:58:29 77° WSW 12:03:33 10° NNW visible
12 Dec 3.4 11:17:08 10° SE 11:21:50 40° ENE 11:26:32 10° N visible
12 Dec 6.0 12:58:11 10° SW 13:00:50 14° W 13:03:30 10° WNW visible
12 Dec 5.1 23:36:18 10° NE 23:40:49 32° E 23:45:19 10° SSE visible
13 Dec 4.5 12:19:17 10° SSW 12:23:58 38° W 12:28:40 10° NNW visible
13 Dec 6.3 23:02:04 10° ENE 23:03:55 12° E 23:05:47 10° ESE visible
14 Dec 2.9 11:42:10 10° SSE 11:47:13 80° ENE 11:52:18 10° N visible
15 Dec 5.6 12:45:57 10° SW 12:49:31 19° W 12:53:05 10° NW visible
15 Dec 5.6 23:25:25 10° NE 23:29:31 24° E 23:33:35 10° SSE visible
16 Dec 3.9 12:07:46 10° S 12:12:41 51° W 12:17:36 10° NNW visible
17 Dec 3.0 11:31:00 10° SSE 11:35:58 60° ENE 11:40:58 10° N visible
18 Dec 5.2 12:34:03 10° SSW 12:38:12 26° W 12:42:22 10° NW visible
18 Dec 5.9 23:14:45 10° NE 23:18:11 18° E 23:21:38 10° SE visible
19 Dec 3.3 11:56:22 10° S 12:01:25 69° W 12:06:27 10° NNW visible
